SARSAT 7 (NOAA 15)

Last updated on Thu Aug 21 2025 00:02:33 GMT+0000 (Coordinated Universal Time)

1 25338U 98030A 25231.77009435 .00000153 00000+0 80310-4 0 9993 2 25338 98.5336 255.1809 0010950 145.7140 214.4750 14.27013376418307

Satellite not in orbit

SARSAT 7 (NOAA 15)